Weather History for CWCL - March, 2014

Change the Weather History Date:

Friday, March 21, 2014

  Actual Average Record
Temperature  
Mean Temperature 24 °F -  
Max Temperature 33 °F 40 °F 53 °F (1999)
Min Temperature 14 °F 22 °F -7 °F (2002)
Degree Days  
Heating Degree Days 42    
Moisture  
Dew Point 10 °F    
Average Humidity 54    
Maximum Humidity 68    
Minimum Humidity 24    
Precipitation  
Precipitation 0.00 in - - ()
Sea Level Pressure  
Sea Level Pressure 30.37 in    
Wind  
Wind Speed 1 mph ()    
Max Wind Speed 6 mph    
Max Gust Speed -    
Visibility 9.0 miles    
Events      
Averages and records for this station are not official NWS values.
T = Trace of Precipitation, MM = Missing Value Source: Averaged Metar Reports

Daily Weather History Graph

Daily Weather History Graph

Search for Another Location

Airport or City:

Trip Planner

Search our weather history database for the weather conditions in past years. The results will help you decide how hot, cold, wet, or windy it might be!

Date:

Astronomy

Mar. 21, 2014 Rise Set
Actual Time 7:06 AM PDT 7:21 PM PDT
Civil Twilight 6:33 AM PDT 7:54 PM PDT
Nautical Twilight 5:54 AM PDT 8:33 PM PDT
Astronomical Twilight 5:13 AM PDT 9:14 PM PDT
Moon 12:14 AM PDT (3/21) 9:31 AM PDT (3/21)
Length of Visible Light 13h 21m
Length of Day
12h 14m
Waning Gibbous, 74% of the Moon is Illuminated
Mar 21
Waning Gibbous
Mar 23
Last Quarter
Mar 30
New
Apr 7
First Quarter
Apr 15
Full

Hourly Weather History & Observations

Time (PDT) Temp. Windchill Dew Point Humidity Pressure Visibility Wind Dir Wind Speed Gust Speed Precip Events Conditions
12:00 AM 19.4 °F - 8.6 °F 63% 30.35 in 9.0 mi Calm Calm - N/A   Unknown
1:00 AM 17.6 °F - 6.8 °F 63% 30.36 in 9.0 mi Calm Calm - N/A   Unknown
2:00 AM 16 °F - 7 °F 54% 30.35 in 9 mi Calm Calm - -  
2:00 AM 15.8 °F - 6.8 °F 68% 30.35 in 9.0 mi Calm Calm - N/A   Unknown
3:00 AM 15.8 °F - 5.0 °F 62% 30.36 in 9.0 mi Calm Calm - N/A   Unknown
4:00 AM 17.6 °F - 8.6 °F 68% 30.37 in 9.0 mi North 2.3 mph - N/A   Unknown
5:00 AM 19 °F - 10 °F 55% 30.37 in 9 mi NNW 3.5 mph - -  
5:00 AM 19.4 °F - 10.4 °F 68% 30.37 in 9.0 mi NW 2.3 mph - N/A   Unknown
5:54 AM 19.4 °F - 8.6 °F 63% 30.23 in 9.0 mi SW 2.3 mph - N/A   Unknown
6:00 AM 19.4 °F - 8.6 °F 63% 30.39 in 9.0 mi SW 2.3 mph - N/A   Unknown
6:44 AM 17.6 °F - 8.6 °F 68% 30.23 in 9.0 mi SW 2.3 mph - N/A   Unknown
7:00 AM 17.6 °F - 8.6 °F 68% 30.40 in 9.0 mi Calm Calm - N/A   Unknown
8:00 AM 20 °F - 10 °F 52% 30.41 in 9 mi Calm Calm - -  
8:00 AM 21.2 °F - 10.4 °F 63% 30.41 in 9.0 mi Calm Calm - N/A   Unknown
9:00 AM 23.0 °F - 12.2 °F 63% 30.41 in 9.0 mi NW 2.3 mph - N/A   Unknown
9:23 AM 24.8 °F - 12.2 °F 59% 30.25 in 9.0 mi Calm Calm - N/A   Unknown
9:27 AM 24.8 °F - 12.2 °F 59% 30.25 in 9.0 mi NNE 2.3 mph - N/A   Unknown
10:00 AM 24.8 °F 20.5 °F 12.2 °F 59% 30.42 in 9.0 mi NNW 3.5 mph - N/A   Unknown
11:00 AM 27 °F - 13 °F 41% 30.41 in 9 mi NNE 3.5 mph - -  
11:00 AM 26.6 °F 20.0 °F 12.2 °F 55% 30.41 in 9.0 mi NNE 5.8 mph - N/A   Unknown
12:00 PM 30.2 °F - 14.0 °F 51% 30.40 in 9.0 mi Calm Calm - N/A   Unknown
1:00 PM 30.2 °F 25.4 °F 12.2 °F 47% 30.40 in 9.0 mi ENE 4.6 mph - N/A   Unknown
2:00 PM 31 °F - 10 °F 26% 30.39 in 9 mi NNE 3.5 mph - -  
2:00 PM 32.0 °F - 10.4 °F 41% 30.39 in 9.0 mi Calm Calm - N/A   Unknown
3:00 PM 32.0 °F 27.5 °F 10.4 °F 41% 30.39 in 9.0 mi ENE 4.6 mph - N/A   Unknown
4:00 PM 32.0 °F - 10.4 °F 41% 30.38 in 9.0 mi NNW 2.3 mph - N/A   Unknown
5:00 PM 32 °F - 9 °F 24% 30.37 in 9 mi WSW 2.3 mph - -  
5:00 PM 32.0 °F 28.7 °F 8.6 °F 38% 30.37 in 9.0 mi WSW 3.5 mph - N/A   Unknown
6:00 PM 32.0 °F 28.7 °F 10.4 °F 41% 30.37 in 9.0 mi West 3.5 mph - N/A   Unknown
7:00 PM 28.4 °F - 10.4 °F 47% 30.37 in 9.0 mi NW 2.3 mph - N/A   Unknown
8:00 PM 26 °F - 11 °F 40% 30.37 in 9 mi WNW 4.6 mph - -  
8:00 PM 24.8 °F 19.1 °F 12.2 °F 59% 30.37 in 9.0 mi WNW 4.6 mph - N/A   Unknown
9:00 PM 24.8 °F - 10.4 °F 54% 30.38 in 9.0 mi Calm Calm - N/A   Unknown
10:00 PM 21.2 °F - 8.6 °F 58% 30.38 in 9.0 mi Calm Calm - N/A   Unknown
11:00 PM 20 °F - 8 °F 46% 30.38 in 9 mi Calm Calm - -  
11:00 PM 19.4 °F - 8.6 °F 63% 30.38 in 9.0 mi Calm Calm - N/A   Unknown